Location: Amon Carter Post Office
(32.8281°N, 97.0484°W)
Time: 22:52:52
(UTC+00:00)

Lacrosse 5 rocket - Pass Details

Date: 04 July 2022
Orbit: 456 x 628 km, 57.0° (Epoch: 08 August)

Event Time Altitude Azimuth Distance (km) Brightness Sun altitude
Rises 02:53:41 0° 328° (NNW) 2,594 6.3 -13.7°
Reaches altitude 10° 02:55:53 10° 334° (NNW) 1,735 4.9 -14.0°
Maximum altitude 02:59:40 46° 49° (NE) 721 1.8 -14.6°
Enters shadow 03:01:40 25° 109° (ESE) 1,116 2.3 -14.9°
